Photometre #43[NE_1.6] Ben_Salem AOT

File : 20221123_43.hum

23/11/2022,06:39:58,TEMP=17.5,BA=5.20,STAT.A=11.0,ExtBa=13.90
23/11/2022,06:41:58,TEMP=17.8,BA=5.20,STAT.b=11.0
23/11/2022,06:43:13,TEMP=17.8,BA=5.20,STAT.A=10.0,ExtBa=11.40
23/11/2022,06:47:04,TEMP=17.7,BA=5.20,STAT.A=11.0,ExtBa=11.30
23/11/2022,06:52:00,TEMP=17.9,BA=5.48,STAT.A=11.0,ExtBa=12.70
23/11/2022,06:57:59,TEMP=18.1,BA=5.48,STAT.A=11.0,ExtBa=13.10
23/11/2022,07:05:27,TEMP=18.5,BA=5.40,STAT.A=11.0,ExtBa=13.30
23/11/2022,07:14:56,TEMP=18.9,BA=5.52,STAT.B=11.0,ExtBa=12.30
23/11/2022,07:19:31,TEMP=19.2,BA=5.52,STAT.A=11.0,ExtBa=13.20
23/11/2022,07:24:41,TEMP=19.4,BA=5.52,STAT.A=11.0,ExtBa=13.10
23/11/2022,07:30:32,TEMP=19.4,BA=5.56,STAT.A=11.0,ExtBa=13.10
23/11/2022,07:37:16,TEMP=19.5,BA=5.56,STAT.A=11.0,ExtBa=13.30
23/11/2022,07:45:05,TEMP=19.7,BA=5.56,STAT.C=11.0,ExtBa=13.40
23/11/2022,07:54:18,TEMP=19.9,BA=5.52,STAT.A=11.0,ExtBa=13.10
23/11/2022,08:05:22,TEMP=20.4,BA=5.80,STAT.A=11.0,ExtBa=12.10
23/11/2022,08:08:31,TEMP=20.9,BA=5.80,STAT.F,ExtBa=11.00
23/11/2022,08:22:03,TEMP=20.6,BA=5.52,STAT.D=11.0,ExtBa=12.00
23/11/2022,08:37:03,TEMP=21.2,BA=5.76,STAT.D=11.0,ExtBa=11.90
23/11/2022,08:52:03,TEMP=21.1,BA=5.56,STAT.D=11.0,ExtBa=11.70
23/11/2022,09:07:05,TEMP=21.3,BA=5.56,STAT.F,ExtBa=12.00
23/11/2022,09:22:04,TEMP=20.9,BA=5.40,STAT.D=11.0,ExtBa=11.90
23/11/2022,09:37:04,TEMP=21.1,BA=5.56,STAT.D=11.0,ExtBa=11.60
23/11/2022,09:52:04,TEMP=21.8,BA=5.96,STAT.D=11.0,ExtBa=11.80
23/11/2022,10:07:01,TEMP=22.8,BA=6.04,STAT.F,ExtBa=12.80
23/11/2022,10:22:04,TEMP=22.5,BA=5.96,STAT.D=11.0,ExtBa=11.90
23/11/2022,10:37:04,TEMP=23.3,BA=6.08,STAT.D=11.0,ExtBa=11.80
23/11/2022,10:52:02,TEMP=24.0,BA=5.44,STAT.D=11.0,ExtBa=11.50
23/11/2022,11:07:06,TEMP=24.2,BA=5.28,STAT.F,ExtBa=11.40
23/11/2022,12:21:59,TEMP=25.5,BA=6.00,STAT.D=11.0,ExtBa=11.50
23/11/2022,12:36:59,TEMP=25.8,BA=5.96,STAT.D=11.0,ExtBa=11.20
23/11/2022,12:51:59,TEMP=25.7,BA=5.96,STAT.D=11.0,ExtBa=11.20
23/11/2022,13:07:01,TEMP=25.8,BA=5.88,STAT.F,ExtBa=11.50
23/11/2022,13:22:46,TEMP=25.4,BA=5.68,STAT.D=11.0,ExtBa=10.20
23/11/2022,13:36:59,TEMP=26.0,BA=5.84,STAT.D=11.0,ExtBa=11.20
23/11/2022,13:51:59,TEMP=26.5,BA=5.68,STAT.D=11.0,ExtBa=11.30
23/11/2022,14:07:05,TEMP=25.6,BA=5.68,STAT.F,ExtBa=12.50
23/11/2022,14:22:56,TEMP=25.4,BA=5.36,STAT.A=11.0,ExtBa=10.50
23/11/2022,14:24:49,TEMP=25.3,BA=5.36,STAT.A=11.0,ExtBa=10.50
23/11/2022,14:29:05,TEMP=24.6,BA=5.36,STAT.C=11.0,ExtBa=10.60
23/11/2022,14:36:54,TEMP=24.0,BA=5.32,STAT.A=11.0,ExtBa=10.80
23/11/2022,14:43:38,TEMP=23.8,BA=5.44,STAT.A=11.0,ExtBa=10.90
23/11/2022,14:49:29,TEMP=23.6,BA=5.44,STAT.A=11.0,ExtBa=10.90
23/11/2022,14:54:39,TEMP=23.5,BA=5.32,STAT.A=11.0,ExtBa=10.90
23/11/2022,14:59:14,TEMP=23.5,BA=5.32,STAT.B=11.0,ExtBa=10.90
23/11/2022,15:10:15,TEMP=23.6,BA=5.32,STAT.A=11.0,ExtBa=10.40
23/11/2022,15:16:09,TEMP=23.1,BA=5.32,STAT.A=11.0,ExtBa=10.60
23/11/2022,15:22:08,TEMP=22.9,BA=5.44,STAT.A=11.0,ExtBa=10.60
23/11/2022,15:27:04,TEMP=22.9,BA=5.44,STAT.A=11.0,ExtBa=10.80
23/11/2022,15:31:12,TEMP=23.1,BA=5.44,STAT.A=11.0,ExtBa=10.80
23/11/2022,15:34:43,TEMP=23.2,BA=5.44,STAT.A=11.0,ExtBa=10.60